Weather History for Fort Worth Spinks, TX

Change the Weather History Date:

Tuesday, March 5, 2013

  Actual Average (KDFW) Record (KDFW)
Temperature  
Mean Temperature 49 °F 55 °F  
Max Temperature 57 °F 65 °F 96 °F (1991)
Min Temperature 41 °F 44 °F 20 °F (1989)
Degree Days  
Heating Degree Days 16 11  
Month to date heating degree days 58  
Since 1 July heating degree days 1990  
Cooling Degree Days 0 1  
Month to date cooling degree days 3  
Year to date cooling degree days 10  
Moisture  
Dew Point 24 °F    
Average Humidity 42    
Maximum Humidity 62    
Minimum Humidity 21    
Precipitation  
Precipitation 0.00 in 0.12 in 1.60 in (1933)
Month to date precipitation 0.55  
Year to date precipitation 5.34  
Snow  
Snow 0.00 in 0.00 in 1.70 in (1954)
Month to date snowfall 0.0  
Since 1 July snowfall 1.0  
Snow Depth -    
Sea Level Pressure  
Sea Level Pressure 30.25 in    
Wind  
Wind Speed 22 mph (NNW)    
Max Wind Speed 36 mph    
Max Gust Speed 44 mph    
Visibility 10 miles    
Events      
T = Trace of Precipitation, MM = Missing Value Source: NWS Daily Summary

Daily Weather History Graph

Daily Weather History Graph

Search for Another Location

Airport:

Trip Planner

Search our weather history database for the weather conditions in past years. The results will help you decide how hot, cold, wet, or windy it might be!

Date:

Astronomy

Mar. 05, 2013 Rise Set
Actual Time 6:51 AM CST 6:29 PM CST
Civil Twilight 6:27 AM CST 6:54 PM CST
Nautical Twilight 5:58 AM CST 7:23 PM CST
Astronomical Twilight 5:30 AM CST 7:51 PM CST
Moon 1:50 AM CST (3/5) 12:24 PM CST (3/5)
Length of Visible Light 12h 27m
Length of Day
11h 38m
Last Quarter, 40% of the Moon is Illuminated
Mar 5
Last Quarter
Mar 11
New
Mar 19
First Quarter
Mar 27
Full
Apr 2
Last Quarter

Hourly Weather History & Observations

Time (CST) Temp. Windchill Dew Point Humidity Pressure Visibility Wind Dir Wind Speed Gust Speed Precip Events Conditions
12:15 AM 57.2 °F - 41.0 °F 55% 29.84 in 10.0 mi North 31.1 mph 40.3 mph N/A   Clear
12:35 AM 55.4 °F - 41.0 °F 58% 29.88 in 10.0 mi North 21.9 mph 32.2 mph N/A   Clear
12:55 AM 51.8 °F - 39.2 °F 62% 29.93 in 10.0 mi NNW 35.7 mph 43.7 mph N/A   Clear
1:15 AM 51.8 °F - 39.2 °F 62% 29.96 in 10.0 mi NNW 25.3 mph 32.2 mph N/A   Clear
1:55 AM 50.0 °F - 37.4 °F 62% 29.99 in 10.0 mi North 26.5 mph 40.3 mph N/A   Scattered Clouds
2:15 AM 48.2 °F - 35.6 °F 62% 30.01 in 10.0 mi North 23.0 mph 43.7 mph N/A   Clear
2:35 AM 48.2 °F - 35.6 °F 62% 30.04 in 10.0 mi North 28.8 mph 39.1 mph N/A   Clear
2:55 AM 48.2 °F - 33.8 °F 58% 30.09 in 10.0 mi North 27.6 mph 36.8 mph N/A   Scattered Clouds
3:15 AM 48.2 °F - 32.0 °F 54% 30.09 in 10.0 mi North 29.9 mph 40.3 mph N/A   Scattered Clouds
3:35 AM 48.2 °F - 32.0 °F 54% 30.11 in 10.0 mi North 32.2 mph 39.1 mph N/A   Clear
3:55 AM 48.2 °F - 32.0 °F 54% 30.12 in 10.0 mi North 19.6 mph 32.2 mph N/A   Clear
4:15 AM 46.4 °F 37.5 °F 32.0 °F 57% 30.14 in 10.0 mi North 27.6 mph 39.1 mph N/A   Clear
4:35 AM 46.4 °F 36.7 °F 32.0 °F 57% 30.14 in 10.0 mi North 33.4 mph 40.3 mph N/A   Clear
4:55 AM 46.4 °F 37.5 °F 32.0 °F 57% 30.15 in 10.0 mi North 27.6 mph 43.7 mph N/A   Clear
5:15 AM 46.4 °F 38.1 °F 32.0 °F 57% 30.18 in 10.0 mi North 24.2 mph 32.2 mph N/A   Clear
7:49 AM 44.6 °F 35.5 °F 28.4 °F 53% 30.27 in 10.0 mi NNW 25.3 mph 33.4 mph N/A   Clear
8:46 AM 46.4 °F 38.3 °F 21.2 °F 37% 30.30 in 10.0 mi NNW 23.0 mph 34.5 mph N/A   Clear
9:48 AM 50.0 °F - 19.4 °F 30% 30.33 in 10.0 mi North 25.3 mph 32.2 mph N/A   Clear
10:48 AM 50.0 °F - 15.8 °F 26% 30.37 in 10.0 mi NNW 26.5 mph 38.0 mph N/A   Clear
11:52 AM 53.6 °F - 17.6 °F 24% 30.37 in 10.0 mi NNW 20.7 mph 31.1 mph N/A   Clear
12:48 PM 53.6 °F - 17.6 °F 24% 30.36 in 10.0 mi North 31.1 mph 35.7 mph N/A   Clear
1:46 PM 55.4 °F - 17.6 °F 23% 30.34 in 10.0 mi NNW 19.6 mph 29.9 mph N/A   Clear
2:51 PM 55.4 °F - 17.6 °F 23% 30.33 in 10.0 mi North 13.8 mph 28.8 mph N/A   Clear
3:49 PM 57.2 °F - 17.6 °F 21% 30.33 in 10.0 mi NNW 17.3 mph 26.5 mph N/A   Clear
4:57 PM 55.4 °F - 15.8 °F 21% 30.32 in 10.0 mi NNW 17.3 mph - N/A   Clear
5:46 PM 53.6 °F - 15.8 °F 22% 30.33 in 10.0 mi NW 12.7 mph - N/A   Clear
6:50 PM 51.8 °F - 15.8 °F 24% 30.35 in 10.0 mi NNW 11.5 mph - N/A   Clear
6:55 PM 50.0 °F - 17.6 °F 28% 30.34 in 10.0 mi NNW 11.5 mph - N/A   Clear
7:15 PM 48.2 °F - 17.6 °F 30% 30.35 in 10.0 mi NNW 9.2 mph - N/A   Clear
7:35 PM 46.4 °F 42.4 °F 19.4 °F 34% 30.35 in 10.0 mi NNW 8.1 mph - N/A   Clear
7:55 PM 44.6 °F 40.7 °F 19.4 °F 37% 30.35 in 10.0 mi NNW 6.9 mph - N/A   Clear
8:15 PM 44.6 °F 40.7 °F 19.4 °F 37% 30.35 in 10.0 mi North 6.9 mph - N/A   Clear
8:35 PM 42.8 °F 38.6 °F 19.4 °F 39% 30.36 in 10.0 mi North 6.9 mph - N/A   Clear
8:55 PM 44.6 °F 41.4 °F 17.6 °F 34% 30.37 in 10.0 mi NNW 5.8 mph - N/A   Clear
9:15 PM 42.8 °F 39.3 °F 19.4 °F 39% 30.37 in 10.0 mi NNW 5.8 mph - N/A   Clear
9:35 PM 42.8 °F 40.1 °F 17.6 °F 36% 30.38 in 10.0 mi NNW 4.6 mph - N/A   Clear
9:55 PM 42.8 °F - 17.6 °F 36% 30.38 in 10.0 mi Calm Calm - N/A   Clear
10:15 PM 42.8 °F 41.1 °F 17.6 °F 36% 30.38 in 10.0 mi NW 3.5 mph - N/A   Clear
10:35 PM 42.8 °F 38.6 °F 19.4 °F 39% 30.38 in 10.0 mi NNW 6.9 mph - N/A   Clear
10:55 PM 41.0 °F 36.4 °F 19.4 °F 42% 30.37 in 10.0 mi NNW 6.9 mph - N/A   Clear
11:15 PM 41.0 °F 35.8 °F 19.4 °F 42% 30.38 in 10.0 mi NNW 8.1 mph - N/A   Clear
11:35 PM 41.0 °F 37.1 °F 19.4 °F 42% 30.39 in 10.0 mi NW 5.8 mph - N/A   Clear
11:55 PM 41.0 °F 36.4 °F 19.4 °F 42% 30.39 in 10.0 mi NNW 6.9 mph - N/A   Clear